This demonstration page uses our WeatherBlox Daily Observations layout. Learn more.

Left ArrowRight Arrow

39.51506, -84.39828

Hourly Observations for October 18, 2020

Temp ( °F °C ) Dew Point ( °F °C ) Humidity (%) Winds ( mph kmh ) Pressure ( in mb ) Visibility ( mi km ) Precip ( " mm )
12:15 am 00:15 Clear 49 9.5 30 -0.9 49 49 WSW 6 9 30.21 1023 10 16.0934 0 0
12:35 am 00:35 Partly Cloudy 47 8.3 33 0.3 57 57 WNW 3 6 30.22 1023 10 16.0934 0 0
12:55 am 00:55 Clear 45 7.1 34 1.2 66 66 Calm 30.23 1024 10 16.0934 0 0
1:15 am 01:15 Mostly Cloudy 44 6.8 35 1.7 70 70 Calm 30.22 1023 10 16.0934 0 0
1:35 am 01:35 Mostly Cloudy 41 4.9 36 2.4 84 84 Calm 30.23 1024 10 16.0934 0 0
1:55 am 01:55 Clear 42 5.7 35 1.9 77 77 Calm 30.23 1024 10 16.0934 0 0
2:15 am 02:15 Clear 42 5.4 37 2.5 82 82 Calm 30.23 1024 10 16.0934 0 0
2:35 am 02:35 Clear 39 3.7 35 1.6 86 86 WNW 3 6 30.23 1024 10 16.0934 0 0
2:55 am 02:55 Partly Cloudy 42 5.8 35 1.4 74 74 Calm 30.22 1023 10 16.0934 0 0
3:15 am 03:15 Cloudy 47 8.5 33 0.6 58 58 SW 5 7 30.2 1023 10 16.0934 0 0
3:35 am 03:35 Cloudy 49 9.6 33 0.3 53 53 WSW 6 9 30.19 1022 10 16.0934 0 0
3:55 am 03:55 Cloudy 47 8.4 35 1.4 62 62 W 6 9 30.19 1022 10 16.0934 0 0
4:15 am 04:15 Cloudy 47 8.4 35 1.5 62 62 W 3 6 30.19 1022 10 16.0934 0 0
4:35 am 04:35 Cloudy 47 8.4 35 1.6 63 63 WSW 3 6 30.17 1022 10 16.0934 0 0
4:55 am 04:55 Cloudy 48 9.1 35 1.7 60 60 Calm 30.17 1022 10 16.0934 0 0
5:15 am 05:15 Cloudy 50 10.1 34 1.1 54 54 WSW 3 6 30.18 1022 10 16.0934 0 0
5:35 am 05:35 Cloudy 50 10.1 34 1.1 54 54 SW 6 9 30.19 1022 10 16.0934 0 0
5:55 am 05:55 Cloudy 49 9.7 35 1.5 57 57 WSW 6 9 30.19 1022 10 16.0934 0 0
6:15 am 06:15 Cloudy 50 10.2 35 1.4 55 55 WSW 7 11 30.2 1023 10 16.0934 0 0
6:35 am 06:35 Cloudy 51 10.8 35 1.4 53 53 SW 9 15 30.19 1022 10 16.0934 0 0
6:55 am 06:55 Cloudy 51 10.7 35 1.4 53 53 SW 12 19 30.19 1022 10 16.0934 0 0
7:15 am 07:15 Cloudy 51 10.8 35 1.5 53 53 SW 13 20 30.2 1023 10 16.0934 0 0
7:35 am 07:35 Cloudy 52 10.9 35 1.7 53 53 SW 14 22 30.2 1023 10 16.0934 0 0
7:55 am 07:55 Cloudy 51 10.7 35 1.7 54 54 WSW 10 17 30.2 1023 10 16.0934 0 0
8:15 am 08:15 Cloudy 51 10.7 36 2 55 55 SW 10 17 30.2 1023 10 16.0934 0 0
8:35 am 08:35 Cloudy 52 10.9 36 2.2 55 55 SW 10 17 30.2 1023 10 16.0934 0 0
8:55 am 08:55 Mostly Cloudy 52 11 36 2.4 56 56 SW 9 15 30.19 1022 10 16.0934 0 0
9:15 am 09:15 Partly Cloudy 52 11.1 37 2.8 57 57 WSW 12 19 30.19 1022 10 16.0934 0 0
9:35 am 09:35 Mostly Cloudy 52 11.2 38 3.1 58 58 WSW 9 15 30.2 1023 10 16.0934 0 0
9:55 am 09:55 Cloudy 52 11.3 38 3.3 58 58 WSW 12 19 30.21 1023 10 16.0934 0 0
10:15 am 10:15 Cloudy with Light Rain 51 10.7 39 4.1 64 64 WSW 14 22 30.22 1023 10 16.0934 0 0
10:35 am 10:35 Cloudy with Light Rain 49 9.5 42 5.5 76 76 WSW 12 19 30.22 1023 10 16.0934 0 0
10:55 am 10:55 Cloudy with Light Rain 48 9.1 43 6.2 82 82 W 7 11 30.23 1024 10 16.0934 0.01 0.254
11:15 am 11:15 Cloudy with Light Rain 48 9.1 44 6.7 85 85 WSW 3 6 30.23 1024 10 16.0934 0.01 0.254
11:35 am 11:35 Cloudy 49 9.4 44 6.8 84 84 SW 10 17 30.23 1024 10 16.0934 0.01 0.254
11:55 am 11:55 Cloudy 50 10 45 7.4 84 84 SW 8 13 30.22 1023 10 16.0934 0.01 0.254
12:15 pm 12:15 Cloudy 50 10.1 45 7 81 81 SW 7 11 30.22 1023 10 16.0934 0 0
12:35 pm 12:35 Cloudy 51 10.3 45 7.1 81 81 SW 10 17 30.22 1023 10 16.0934 0 0
12:55 pm 12:55 Cloudy 52 10.9 46 7.5 80 80 SW 12 19 30.21 1023 10 16.0934 0 0
1:15 pm 13:15 Cloudy 52 11.2 46 7.7 79 79 SW 12 19 30.21 1023 10 16.0934 0 0
1:35 pm 13:35 Cloudy 53 11.7 47 8.1 79 79 WSW 12 19 30.19 1023 10 16.0934 0 0
1:55 pm 13:55 Cloudy 54 12.2 47 8.4 78 78 WSW 10 17 30.18 1022 10 16.0934 0 0
2:15 pm 14:15 Cloudy 55 12.6 47 8.3 75 75 WSW 14 22 30.17 1022 10 16.0934 0 0
2:35 pm 14:35 Cloudy 56 13.1 47 8.5 74 74 WSW 17 28 30.17 1022 10 16.0934 0 0
2:55 pm 14:55 Cloudy 56 13.6 48 9 74 74 WSW 15 24 30.17 1022 10 16.0934 0 0
3:15 pm 15:15 Cloudy 58 14.3 49 9.4 73 73 WSW 10 17 30.16 1021 10 16.0934 0 0
3:35 pm 15:35 Cloudy 58 14.2 49 9.3 73 73 WSW 10 17 30.15 1021 10 16.0934 0 0
3:55 pm 15:55 Cloudy 58 14.2 49 9.4 73 73 WSW 9 15 30.15 1021 10 16.0934 0 0
4:15 pm 16:15 Cloudy 58 14.4 49 9.7 74 74 SW 9 15 30.15 1021 10 16.0934 0 0
4:35 pm 16:35 Cloudy 58 14.5 49 9.7 73 73 SW 8 13 30.15 1021 10 16.0934 0 0
4:55 pm 16:55 Cloudy 58 14.5 49 9.7 73 73 SW 13 20 30.15 1021 10 16.0934 0 0
5:15 pm 17:15 Cloudy 59 14.9 49 9.7 71 71 WSW 9 15 30.15 1021 10 16.0934 0 0
5:35 pm 17:35 Cloudy 59 15.1 50 9.9 71 71 WSW 12 19 30.17 1022 10 16.0934 0 0
5:55 pm 17:55 Cloudy 59 15 50 10 72 72 WSW 5 7 30.17 1022 10 16.0934 0 0
6:15 pm 18:15 Cloudy 59 15 50 9.8 71 71 WSW 8 13 30.17 1022 10 16.0934 0 0
6:35 pm 18:35 Cloudy 59 14.8 50 9.9 73 73 WSW 7 11 30.17 1022 10 16.0934 0 0
6:55 pm 18:55 Cloudy 58 14.7 50 10 74 74 SW 3 6 30.16 1021 10 16.0934 0 0
7:15 pm 19:15 Cloudy 59 14.8 50 10 73 73 WSW 6 9 30.18 1022 10 16.0934 0 0
7:35 pm 19:35 Cloudy 58 14.7 50 10.1 74 74 SW 6 9 30.18 1022 10 16.0934 0 0
7:55 pm 19:55 Cloudy 58 14.6 50 10.1 75 75 SW 7 11 30.18 1022 10 16.0934 0 0
8:15 pm 20:15 Cloudy 58 14.6 50 10.1 75 75 WSW 9 15 30.17 1022 10 16.0934 0 0
8:35 pm 20:35 Cloudy 58 14.3 50 10.1 76 76 WSW 6 9 30.18 1022 10 16.0934 0 0
8:55 pm 20:55 Partly Cloudy 57 13.9 50 10.1 78 78 WSW 6 9 30.18 1022 10 16.0934 0 0
9:15 pm 21:15 Mostly Cloudy 57 13.8 50 10.2 79 79 WSW 5 7 30.19 1022 10 16.0934 0 0
9:35 pm 21:35 Clear 56 13.3 50 10.1 81 81 Calm 30.19 1022 10 16.0934 0 0
9:55 pm 21:55 Clear 55 13 50 10.2 83 83 Calm 30.19 1022 10 16.0934 0 0
10:15 pm 22:15 Clear 53 11.8 50 10.2 90 90 Calm 30.2 1023 10 16.0934 0 0
10:35 pm 22:35 Clear 54 12.2 51 10.3 88 88 Calm 30.2 1023 10 16.0934 0 0
10:55 pm 22:55 Partly Cloudy 53 11.7 52 10.9 95 95 Calm 30.2 1023 10 16.0934 0 0
11:15 pm 23:15 Cloudy 53 11.6 52 10.9 96 96 Calm 30.21 1023 10 16.0934 0 0
11:35 pm 23:35 Cloudy 53 11.5 52 10.9 96 96 Calm 30.22 1023 10 16.0934 0 0
11:55 pm 23:55 Cloudy with Light Rain 53 11.5 51 10.8 96 96 Calm 30.22 1023 10 16.0934 0 0

Powered by AerisWeather